Time,TemperatureF,DewpointF,PressureIn,WindDirection,WindDirectionDegrees,WindSpeedMPH,WindSpeedGustMPH,Humidity,HourlyPrecipIn,Conditions,Clouds,dailyrainin,SolarRadiationWatts/m^2,SoftwareType,DateUTC
2013-08-23 00:01:00,58.0,-99.9,-100.00,WSW,237,0.0,4.0,0,0.00,,,0.00,0.000000,,2013-08-23 07:01:00,
2013-08-23 00:42:00,57.0,-99.9,-100.00,WSW,237,0.0,3.0,0,0.00,,,0.00,0.000000,,2013-08-23 07:42:00,
2013-08-23 00:53:00,57.0,-99.9,-100.00,WSW,237,0.0,3.0,0,0.00,,,0.00,0.000000,,2013-08-23 07:53:00,
2013-08-23 01:02:00,57.0,-99.9,-100.00,WSW,237,0.0,3.0,0,0.00,,,0.00,0.000000,,2013-08-23 08:02:00,
2013-08-23 01:42:00,57.0,-99.9,-100.00,South,179,1.0,4.0,0,0.00,,,0.00,0.000000,,2013-08-23 08:42:00,
2013-08-23 01:52:00,57.0,-99.9,-100.00,South,179,1.0,4.0,0,0.00,,,0.00,0.000000,,2013-08-23 08:52:00,
2013-08-23 02:01:00,57.0,-99.9,-100.00,South,179,1.0,4.0,0,0.00,,,0.00,0.000000,,2013-08-23 09:01:00,
2013-08-23 02:03:00,56.0,-99.9,-100.00,SSE,157,0.0,5.0,0,0.00,,,0.00,0.000000,,2013-08-23 09:03:00,
2013-08-23 02:43:00,56.0,-99.9,-100.00,SSE,157,0.0,5.0,0,0.00,,,0.00,0.000000,,2013-08-23 09:43:00,
2013-08-23 02:53:00,56.0,-99.9,-100.00,SSE,157,0.0,5.0,0,0.00,,,0.00,0.000000,,2013-08-23 09:53:00,
2013-08-23 03:42:00,53.0,-99.9,-100.00,NNE,16,0.0,4.0,0,0.00,,,0.00,0.000000,,2013-08-23 10:42:00,
2013-08-23 03:53:00,53.0,-99.9,-100.00,NNE,16,0.0,4.0,0,0.00,,,0.00,0.000000,,2013-08-23 10:53:00,
2013-08-23 04:02:00,53.0,-99.9,-100.00,NNE,16,0.0,4.0,0,0.00,,,0.00,0.000000,,2013-08-23 11:02:00,
2013-08-23 04:42:00,52.0,-99.9,-100.00,SSW,199,0.0,3.0,0,0.00,,,0.00,0.000000,,2013-08-23 11:42:00,
2013-08-23 04:53:00,52.0,-99.9,-100.00,SSW,199,0.0,3.0,0,0.00,,,0.00,0.000000,,2013-08-23 11:53:00,
2013-08-23 05:02:00,52.0,-99.9,-100.00,SSW,199,0.0,3.0,0,0.00,,,0.00,0.000000,,2013-08-23 12:02:00,
2013-08-23 05:22:00,49.0,-99.9,-100.00,South,169,1.0,3.0,0,0.00,,,0.00,0.000000,,2013-08-23 12:22:00,
2013-08-23 05:32:00,49.0,-99.9,-100.00,South,169,1.0,3.0,0,0.00,,,0.00,0.000000,,2013-08-23 12:32:00,
2013-08-23 05:42:00,49.0,-99.9,-100.00,South,169,1.0,3.0,0,0.00,,,0.00,0.000000,,2013-08-23 12:42:00,
2013-08-23 05:52:00,49.0,-99.9,-100.00,South,169,1.0,3.0,0,0.00,,,0.00,0.000000,,2013-08-23 12:52:00,
2013-08-23 06:02:00,49.0,-99.9,-100.00,South,169,1.0,3.0,0,0.00,,,0.00,0.000000,,2013-08-23 13:02:00,
2013-08-23 06:42:00,50.0,-99.9,-100.00,WSW,256,0.0,3.0,0,0.00,,,0.00,1.000000,,2013-08-23 13:42:00,
2013-08-23 06:53:00,50.0,-99.9,-100.00,WSW,256,0.0,3.0,0,0.00,,,0.00,1.000000,,2013-08-23 13:53:00,
2013-08-23 07:02:00,50.0,-99.9,-100.00,WSW,256,0.0,3.0,0,0.00,,,0.00,1.000000,,2013-08-23 14:02:00,
2013-08-23 07:42:00,55.0,-99.9,-100.00,NNE,23,0.0,4.0,0,0.00,,,0.00,75.000000,,2013-08-23 14:42:00,
2013-08-23 07:52:00,55.0,-99.9,-100.00,NNE,23,0.0,4.0,0,0.00,,,0.00,75.000000,,2013-08-23 14:52:00,
2013-08-23 08:02:00,55.0,-99.9,-100.00,NNE,23,0.0,4.0,0,0.00,,,0.00,75.000000,,2013-08-23 15:02:00,
2013-08-23 08:03:00,66.0,-99.9,-100.00,SE,141,2.0,5.0,0,0.00,,,0.00,163.000000,,2013-08-23 15:03:00,
2013-08-23 08:54:00,66.0,-99.9,-100.00,SE,141,2.0,5.0,0,0.00,,,0.00,163.000000,,2013-08-23 15:54:00,
2013-08-23 11:42:00,77.0,-99.9,-100.00,SW,221,3.0,12.0,0,-99.99,,,0.00,838.000000,,2013-08-23 18:42:00,
2013-08-23 11:52:00,77.0,-99.9,-100.00,SW,221,3.0,12.0,0,-99.99,,,0.00,838.000000,,2013-08-23 18:52:00,
2013-08-23 12:02:00,77.0,-99.9,-100.00,SW,221,3.0,12.0,0,-99.99,,,0.00,838.000000,,2013-08-23 19:02:00,
2013-08-23 12:43:00,78.0,-99.9,-100.00,SSW,209,2.0,14.0,0,0.00,,,0.00,657.000000,,2013-08-23 19:43:00,
2013-08-23 13:03:00,78.0,-99.9,-100.00,ENE,71,4.0,14.0,0,0.00,,,0.00,872.000000,,2013-08-23 20:03:00,
2013-08-23 13:42:00,78.0,-99.9,-100.00,ENE,71,4.0,14.0,0,0.00,,,0.00,872.000000,,2013-08-23 20:42:00,
2013-08-23 13:52:00,78.0,-99.9,-100.00,ENE,71,4.0,14.0,0,0.00,,,0.00,872.000000,,2013-08-23 20:52:00,
2013-08-23 14:03:00,78.0,-99.9,-100.00,NE,39,6.0,15.0,0,0.00,,,0.00,869.000000,,2013-08-23 21:03:00,
2013-08-23 14:44:00,78.0,-99.9,-100.00,NE,39,6.0,15.0,0,0.00,,,0.00,869.000000,,2013-08-23 21:44:00,
2013-08-23 14:54:00,78.0,-99.9,-100.00,NE,39,6.0,15.0,0,0.00,,,0.00,869.000000,,2013-08-23 21:54:00,
2013-08-23 15:03:00,74.0,-99.9,-100.00,NW,306,5.0,14.0,0,0.00,,,0.00,703.000000,,2013-08-23 22:03:00,
2013-08-23 15:43:00,74.0,-99.9,-100.00,NW,306,5.0,14.0,0,0.00,,,0.00,703.000000,,2013-08-23 22:43:00,
2013-08-23 15:54:00,74.0,-99.9,-100.00,NW,306,5.0,14.0,0,0.00,,,0.00,703.000000,,2013-08-23 22:54:00,
2013-08-23 16:43:00,72.0,-99.9,-100.00,NNW,336,3.0,15.0,0,0.00,,,0.00,264.000000,,2013-08-23 23:43:00,
2013-08-23 16:54:00,72.0,-99.9,-100.00,NNW,336,3.0,15.0,0,0.00,,,0.00,264.000000,,2013-08-23 23:54:00,
2013-08-23 17:02:00,72.0,-99.9,-100.00,NNW,336,3.0,15.0,0,0.00,,,0.00,264.000000,,2013-08-24 00:02:00,
2013-08-23 17:22:00,69.0,-99.9,-100.00,NNW,338,3.0,11.0,0,0.00,,,0.00,165.000000,,2013-08-24 00:22:00,
2013-08-23 17:32:00,69.0,-99.9,-100.00,NNW,338,3.0,11.0,0,0.00,,,0.00,165.000000,,2013-08-24 00:32:00,
2013-08-23 17:43:00,69.0,-99.9,-100.00,NNW,338,3.0,11.0,0,0.00,,,0.00,165.000000,,2013-08-24 00:43:00,
2013-08-23 17:53:00,69.0,-99.9,-100.00,NNW,338,3.0,11.0,0,0.00,,,0.00,165.000000,,2013-08-24 00:53:00,
2013-08-23 18:02:00,69.0,-99.9,-100.00,NNW,338,3.0,11.0,0,0.00,,,0.00,165.000000,,2013-08-24 01:02:00,
2013-08-23 18:03:00,67.0,-99.9,-100.00,WNW,297,0.0,14.0,0,0.00,,,0.00,127.000000,,2013-08-24 01:03:00,
2013-08-23 18:42:00,67.0,-99.9,-100.00,WNW,297,0.0,14.0,0,0.00,,,0.00,127.000000,,2013-08-24 01:42:00,
2013-08-23 18:53:00,67.0,-99.9,-100.00,WNW,297,0.0,14.0,0,0.00,,,0.00,127.000000,,2013-08-24 01:53:00,
2013-08-23 19:42:00,64.0,-99.9,-100.00,ESE,105,4.0,5.0,0,0.00,,,0.00,26.000000,,2013-08-24 02:42:00,
2013-08-23 19:52:00,64.0,-99.9,-100.00,ESE,105,4.0,5.0,0,0.00,,,0.00,26.000000,,2013-08-24 02:52:00,
2013-08-23 20:02:00,64.0,-99.9,-100.00,ESE,105,4.0,5.0,0,0.00,,,0.00,26.000000,,2013-08-24 03:02:00,
2013-08-23 20:03:00,62.0,-99.9,-100.00,SE,135,0.0,13.0,0,0.00,,,0.00,0.000000,,2013-08-24 03:03:00,
2013-08-23 20:44:00,62.0,-99.9,-100.00,SE,135,0.0,13.0,0,0.00,,,0.00,0.000000,,2013-08-24 03:44:00,
2013-08-23 20:55:00,62.0,-99.9,-100.00,SE,135,0.0,13.0,0,0.00,,,0.00,0.000000,,2013-08-24 03:55:00,
2013-08-23 21:03:00,61.0,-99.9,-100.00,NE,38,0.0,4.0,0,0.00,,,0.00,0.000000,,2013-08-24 04:03:00,
2013-08-23 21:44:00,61.0,-99.9,-100.00,NE,38,0.0,4.0,0,0.00,,,0.00,0.000000,,2013-08-24 04:44:00,
2013-08-23 21:54:00,61.0,-99.9,-100.00,NE,38,0.0,4.0,0,0.00,,,0.00,0.000000,,2013-08-24 04:54:00,
2013-08-23 22:03:00,58.0,-99.9,-100.00,SSE,166,1.0,5.0,0,0.00,,,0.00,0.000000,,2013-08-24 05:03:00,
2013-08-23 22:43:00,58.0,-99.9,-100.00,SSE,166,1.0,5.0,0,0.00,,,0.00,0.000000,,2013-08-24 05:43:00,
2013-08-23 22:53:00,58.0,-99.9,-100.00,SSE,166,1.0,5.0,0,0.00,,,0.00,0.000000,,2013-08-24 05:53:00,
2013-08-23 23:42:00,53.0,-99.9,-100.00,ESE,103,0.0,4.0,0,0.00,,,0.00,0.000000,,2013-08-24 06:42:00,
2013-08-23 23:52:00,53.0,-99.9,-100.00,ESE,103,0.0,4.0,0,0.00,,,0.00,0.000000,,2013-08-24 06:52:00,